Overview Statistics Trail Chart Weather Telemetry Raw packets
 

This is the latest recevied weather packets stored in our database for station/object KC1TEM-13. If no packets are shown the sender has not sent any weather packets the latest 10 day(s).

<< 99 100 101 102 103 104 105 >>
Time Temp. Humidity Pressure Rain* Wind** Luminosity Snow
1787874020 23.89° C 67% 1016.4 hPa 0 mm - 0 W/m² -
1787873719 23.89° C 66% 1016.3 hPa 0 mm - 1 W/m² -
1787873414 23.89° C 65% 1016 hPa 0 mm - 1 W/m² -
1787873109 24.44° C 65% 1016 hPa 0 mm - 2 W/m² -
1787872809 24.44° C 64% 1016 hPa 0 mm - 4 W/m² -
1787872505 24.44° C 64% 1016.1 hPa 0 mm - 5 W/m² -
1787872200 24.44° C 64% 1016 hPa 0 mm - 8 W/m² -
1787871899 25° C 63% 1016.1 hPa 0 mm - 11 W/m² -
1787871594 25° C 62% 1015.9 hPa 0 mm - 17 W/m² -
1787871290 25° C 62% 1015.9 hPa 0 mm - 18 W/m² -
1787870990 25° C 61% 1015.8 hPa 0 mm - 22 W/m² -
1787870690 25° C 62% 1015.8 hPa 0 mm - 31 W/m² -
1787870390 25° C 61% 1015.8 hPa 0 mm - 34 W/m² -
1787870085 25.56° C 62% 1016.1 hPa 0 mm - 28 W/m² -
1787869784 25.56° C 61% 1015.9 hPa 0 mm - 29 W/m² -
1787869479 25.56° C 61% 1015.9 hPa 0 mm - 34 W/m² -
1787869178 25.56° C 61% 1015.9 hPa 0 mm - 40 W/m² -
1787868873 26.11° C 60% 1016.2 hPa 0 mm - 44 W/m² -
1787868572 26.11° C 60% 1016.1 hPa 0 mm - 54 W/m² -
1787868271 26.11° C 60% 1016.1 hPa 0 mm - 61 W/m² -
1787867966 26.11° C 63% 1015.9 hPa 0 mm - 79 W/m² -
1787867662 26.11° C 60% 1016.1 hPa 0 mm - 93 W/m² -
1787867361 26.11° C 61% 1015.8 hPa 0 mm - 85 W/m² -
1787867058 26.11° C 59% 1016.1 hPa 0 mm - 88 W/m² -
1787866753 26.11° C 59% 1016.1 hPa 0 mm - 70 W/m² -

* Rain latest hour (hover to see other rain measurements)
** Current wind speed in m/s (hover to see current wind gust speed)